Regional Weather Roundup
Issued by NWS

Home | Current Version | Previous Version | Text Only | Print | Product List | Glossary On
Versions: 1 2 3 4 5 6 7 8 9 10 11 12 13 14 15 16 17 18 19 20 21 22 23 24 25 26 27 28 29 30 31 32 33 34 35 36 37 38 39 40 41 42 43 44 45 46 47 48 49 50
000
ASUS44 KOUN 282010
RWROK

WEATHER ROUNDUP FOR OKLAHOMA
NATIONAL WEATHER SERVICE NORMAN OK
200 PM CST SAT FEB 28 2015

NOTE: "FAIR" INDICATES FEW OR NO CLOUDS BELOW 12,000 FEET WITH NO
      SIGNIFICANT WEATHER AND/OR OBSTRUCTIONS TO VISIBILITY.

OKZ001>007-009>012-014-015-017-282100-
NORTHWEST OKLAHOMA AND THE PANHANDLE

CITY           SKY/WX    TMP DP  RH WIND       PRES   REMARKS
GAGE           CLOUDY    23  17  78 S7        30.23F WCI  15
GUYMON         CLOUDY    24  16  71 S12       30.10F WCI  13
ENID/WOODRING  LGT SNOW  27  21  80 SE7       30.34F FOG     WCI  19
$$

OKZ016-021>023-033>039-044-045-282100-
SOUTHWEST OKLAHOMA

CITY           SKY/WX    TMP DP  RH WIND       PRES   REMARKS
LAWTON/REGL    CLOUDY    27  23  85 CALM      30.32F FOG
LAWTON/FT SILL CLOUDY    26  24  92 S2        30.29F
FREDERICK      CLOUDY    24  22  91 SE5       30.28F FOG     WCI  18
CLINTON        CLOUDY    23  18  81 S6        30.28F WCI  16
HOBART         CLOUDY    23  20  88 CALM      30.30F FOG
ALTUS AFB      CLOUDY    24  24  98 SE3       30.30F
$$

OKZ018>020-024>031-282100-
CENTRAL OKLAHOMA

CITY           SKY/WX    TMP DP  RH WIND       PRES   REMARKS
OKLAHOMA CITY  FRZ DRZL  26  21  81 CALM      30.32F
OKC/WILEY POST CLOUDY    24  21  88 CALM      30.33F FOG
OKC/TINKER AFB DRIZZLE   25  22  89 VRB2      30.31F FOG
STILLWATER     CLOUDY    25  22  88 E3        30.36S FOG
GUTHRIE        CLOUDY    24  21  88 SE5       30.35F FOG     WCI  18
$$

OKZ008-013-054>072-282100-
NORTHEAST OKLAHOMA

CITY           SKY/WX    TMP DP  RH WIND       PRES   REMARKS
TULSA          LGT SNOW  26  23  88 E3        30.39F VSB 3/4
TULSA/JONES    FRZ RAIN  26  23  88 SE3       30.39F FOG
PONCA CITY     LGT SNOW  25  21  85 E3        30.37F VSB 3/4
BARTLESVILLE   LGT SNOW  25  22  88 E5        30.41F VSB 1   WCI  19
MUSKOGEE       MIX PCPN  26  23  88 SE5       30.41F FOG     WCI  20
$$

OKZ032-040>043-046>053-073>077-282100-
SOUTH CENTRAL/SOUTHEAST OKLAHOMA

CITY           SKY/WX    TMP DP  RH WIND       PRES   REMARKS
ARDMORE/DWNTWN CLOUDY    30  27  86 CALM      30.33F
MCALESTER      FRZ RAIN  28  25  88 N3        30.38F FOG
$$



USA.gov is the U.S. government's official web portal to all federal, state and local government web resources and services.